*** DING..DANG..DONG and DONG ***

TR)

Hava sahamızda SMART projesi kapsamında LTBB_CTR sektör ismi "Ankara Kontrol" olarak değişmiştir. Tüm uçuş yapan pilotlarımızın hava sahamızda yapılan güncellemeleri chartlarından bir kez daha kontrol etmelerini rica ederiz. 

Kırımsız uçuşlar dileriz.

 

EN)

According to SMART project, LTBB_CTR sector was renamed as "Ankara Control". We kindly request our pilots check updates from their charts once more time. 

Have a safe flight.

 

For more info please contact us via welcome@turvacc.org 

 

Have a great flight in VATSIM Turkish Airspace!

VATSIM Turkiye / TURvACC Crew

 

 

 

1 Hava sahamızda uçuş yapan bir pilot musunuz?     
Are you a pilot flys in our airspace?
2 Hava sahamızda yetkili bir kontrolör müsünüz?   
Are you an authorized controller in our airspace? 

 

 

UTC
Istanbul

Istanbul WX Radar

Events Booking Upcoming events

There are no up-coming events

VATSIM Türkiye Airspace Online Traffic

-> LTBA 261650Z VRB09KT 9999 SCT030 BKN080 20/12 Q1019 NOSIG
-> LTFJ 261650Z 02011KT 9999 SCT035 SCT100 17/13 Q1019 NOSIG
-> LTAC 261650Z VRB02KT 9999 FEW040 14/01 Q1018 NOSIG
-> LTAI 261650Z 12003KT 9999 FEW030 SCT200 21/16 Q1012 NOSIG
-> LTCG 261650Z 23004KT 9999 SCT030 BKN100 19/13 Q1019 NOSIG
-> LTCC 261650Z 24005KT CAVOK 22/00 Q1013 NOSIG

Online ATC & vACC Staff

ATC Bookings List

LTAC FlightRadar Live Traffic
LTBA FlightRadar Live Traffic
LTAI FlightRadar Live Traffic